User: anonymous   Login
Location: Normandy Village
(37.8755°N, 122.2655°W)
Time: 14:31:01
(UTC+00:00)
Language:

TSX-5 - Orbit

View from above orbital plane
View from above orbital plane
View from above satellite
View from above satellite

Ground track
Ground track

The orbit data is extracted from the following two-line orbital elements,

1 26374U 00030A   19315.89896715 +.00002698 +00000-0 +22505-3 0  9999
2 26374 068.9274 293.3584 0642950 355.2516 004.2661 14.07319009979500
Epoch (UTC): 11 November 2019 21:34:30
Eccentricity: 0.0642950
inclination: 68.9274°
perigee height: 402 km
apogee height: 1334 km
right ascension of ascending node: 293.3584°
argument of perigee: 355.2516°
revolutions per day: 14.07319009
mean anomaly at epoch: 4.2661°
orbit number at epoch: 97950

The dashed part of the orbit path shows where the satellite is in the earth's shadow,  

DLR